User: anonymous   Login
Location: Boiro
(42.6475°N, 8.8834°W)
Time: 22:16:35
(UTC+01:00)
Language:

SO-50 - Orbit

View from above orbital plane
View from above orbital plane
View from above satellite
View from above satellite

Ground track
Ground track

The orbit data is extracted from the following two-line orbital elements,

1 27607U 02058C   22021.49783547  .00000432  00000-0  81121-4 0  9997
2 27607  64.5554  31.5036 0067080 324.1034  35.5570 14.75880461 26680
Epoch (UTC): 21 January 2022 11:56:52
Eccentricity: 0.0067080
inclination: 64.5554°
perigee height: 595 km
apogee height: 689 km
right ascension of ascending node: 31.5036°
argument of perigee: 324.1034°
revolutions per day: 14.75880461
mean anomaly at epoch: 35.5570°
orbit number at epoch: 2668

The dashed part of the orbit path shows where the satellite is in the earth's shadow,  

DLR